Kezdőlap
METAR-TAF:

METAR-TAF

Repülőterek :

Audubon County Airport

Audubon, Iowa, Amerikai Egyesült Államok

földrajzi szélesség: 41-42-04N, földrajzi hosszúság: 094-55-13W, magasság: 392 m

Jelenlegi meteorológiai megfigyelések

A jelentés 46 perccel ezelõtt készült, 17:55 UTC
Keleti szél 4 kt
Hőmérséklet 29°C
Páratartalom 43%
Légköri nyomás 1012 hPa
Látótávolság: 16.1 km
Derült ég

METAR: KADU 181755Z AUTO 08004KT 10SM CLR 29/15 A2988 RMK AO2

Idő: 13:41 (18:41 UTC)


TAF: hiányzik

Meteorológiai megfigyelések és előrejelzések több, mint 4000 repülőtéren (METAR és TAF jelentéseket).

A térképen piros és sárga pontok jelzik az elérhető meteorológiai állomásokat.

Mozgassa az egeret a pont fölött, hogy megjelenjen az állomás neve.

Azután kattintson az időjárási megfigyelések és előrejelzések megtekintéséhez.

A térkép megváltoztatása: kattintson a fekete keresztel jelölt zöld gombra ráközelítéshez, a vonallal jelölt zöld gombra távolításhoz, vagy a zöld nyilakra a szomszédos térképek eléréséhez.


METAR-TAF: